| time (UTC) | temp F | wind direction | speed MPH | gust MPH | rain 1hr in | rain 24hr in | rain mn in | humidity % | barometer mb |
| 20260903063453 | 65 | 242 | 0.0 | 1.0 | 0.00 | 0.00 | 0.00 | 1 | 1013.3 |
| 20260903062947 | 65 | 242 | 0.0 | 2.0 | 0.00 | 0.00 | 0.00 | 1 | 1013.4 |
| 20260903062441 | 65 | 242 | 0.0 | 2.0 | 0.00 | 0.00 | 0.00 | 1 | 1013.5 |
| 20260903061935 | 65 | 242 | 0.0 | 0.0 | 0.00 | 0.00 | 0.00 | 1 | 1013.6 |
| 20260903061428 | 65 | 242 | 0.0 | 0.0 | 0.00 | 0.00 | 0.00 | 1 | 1013.5 |
| 20260903061145 | 65 | 242 | 0.0 | 0.0 | 0.00 | 0.00 | 0.00 | 1 | 1013.5 |
| 20260903060643 | 65 | 242 | 0.0 | 0.0 | 0.00 | 0.00 | 0.00 | 1 | 1013.6 |
| 20260903055911 | 65 | 242 | 0.0 | 4.0 | 0.00 | 0.00 | 0.00 | 1 | 1013.6 |
| 20260903055406 | 65 | 242 | 1.0 | 4.0 | 0.00 | 0.00 | 0.00 | 1 | 1013.8 |
| 20260903054859 | 65 | 242 | 1.0 | 4.0 | 0.00 | 0.00 | 0.00 | 1 | 1013.8 |
| 20260903054353 | 65 | 242 | 0.0 | 4.0 | 0.00 | 0.00 | 0.00 | 1 | 1014.0 |
| 20260903053847 | 65 | 241 | 0.0 | 0.0 | 0.00 | 0.00 | 0.00 | 1 | 1014.2 |
| 20260903053341 | 65 | 241 | 0.0 | 0.0 | 0.00 | 0.00 | 0.00 | 1 | 1014.6 |
| 20260903053057 | 65 | 241 | 0.0 | 2.0 | 0.00 | 0.00 | 0.00 | 1 | 1014.5 |
| 20260903052329 | 65 | 241 | 1.0 | 4.0 | 0.00 | 0.00 | 0.00 | 1 | 1014.9 |
| 20260903051830 | 65 | 241 | 1.0 | 4.0 | 0.00 | 0.00 | 0.00 | 1 | 1015.1 |
| 20260903051327 | 65 | 238 | 1.0 | 4.0 | 0.00 | 0.00 | 0.00 | 1 | 1015.1 |
| 20260903050826 | 65 | 238 | 1.0 | 4.0 | 0.00 | 0.00 | 0.00 | 1 | 1014.9 |
| 20260903050326 | 65 | 236 | 0.0 | 2.0 | 0.00 | 0.00 | 0.00 | 1 | 1014.6 |
| 20260903045821 | 65 | 235 | 0.0 | 1.0 | 0.00 | 0.00 | 0.00 | 1 | 1014.6 |
| 20260903045321 | 65 | 235 | 0.0 | 2.0 | 0.00 | 0.00 | 0.00 | 1 | 1014.8 |
| 20260903044821 | 65 | 235 | 0.0 | 2.0 | 0.00 | 0.00 | 0.00 | 1 | 1015.0 |
| 20260903044319 | 65 | 235 | 0.0 | 2.0 | 0.00 | 0.00 | 0.00 | 1 | 1015.3 |
| 20260903043817 | 65 | 235 | 0.0 | 1.0 | 0.00 | 0.00 | 0.00 | 1 | 1015.3 |
| 20260903043316 | 65 | 235 | 0.0 | 1.0 | 0.00 | 0.00 | 0.00 | 1 | 1015.7 |
| 20260903042817 | 65 | 235 | 0.0 | 2.0 | 0.00 | 0.00 | 0.00 | 1 | 1015.8 |
| 20260903042311 | 65 | 235 | 0.0 | 2.0 | 0.00 | 0.00 | 0.00 | 1 | 1015.8 |
| 20260903042255 | 65 | 236 | 0.0 | 4.0 | 0.00 | 0.00 | 0.00 | 1 | 1016.1 |
| 20260903041310 | 65 | 236 | 1.0 | 4.0 | 0.00 | 0.00 | 0.00 | 1 | 1016.3 |
| 20260903040805 | 65 | 233 | 0.0 | 1.0 | 0.00 | 0.00 | 0.00 | 1 | 1016.2 |
| 20260903040303 | 65 | 233 | 1.0 | 5.0 | 0.00 | 0.00 | 0.00 | 1 | 1016.4 |
| 20260903035801 | 65 | 233 | 1.0 | 5.0 | 0.00 | 0.00 | 0.00 | 1 | 1016.7 |
| 20260903035300 | 65 | 246 | 1.0 | 4.0 | 0.00 | 0.00 | 0.00 | 1 | 1017.3 |
| 20260903034759 | 65 | 246 | 0.0 | 2.0 | 0.00 | 0.00 | 0.00 | 1 | 1017.0 |
| 20260903034259 | 65 | 244 | 0.0 | 2.0 | 0.00 | 0.00 | 0.00 | 1 | 1016.2 |
| 20260903034023 | 65 | 244 | 0.0 | 2.0 | 0.00 | 0.00 | 0.00 | 1 | 1016.3 |
| 20260903033255 | 65 | 243 | 0.0 | 1.0 | 0.00 | 0.00 | 0.00 | 1 | 1016.2 |
| 20260903032756 | 65 | 243 | 0.0 | 0.0 | 0.00 | 0.00 | 0.00 | 1 | 1015.9 |
| 20260903032255 | 65 | 243 | 0.0 | 1.0 | 0.00 | 0.00 | 0.00 | 1 | 1015.9 |
| 20260903031755 | 65 | 243 | 0.0 | 1.0 | 0.00 | 0.00 | 0.00 | 1 | 1015.9 |
| 20260903031515 | 65 | 243 | 0.0 | 1.0 | 0.00 | 0.00 | 0.00 | 1 | 1016.1 |
| 20260903030755 | 65 | 243 | 0.0 | 1.0 | 0.00 | 0.00 | 0.00 | 1 | 1016.2 |
| 20260903030253 | 65 | 243 | 0.0 | 0.0 | 0.00 | 0.00 | 0.00 | 1 | 1016.1 |
| 20260903025753 | 65 | 243 | 0.0 | 0.0 | 0.00 | 0.00 | 0.00 | 1 | 1016.0 |
| 20260903025254 | 65 | 243 | 0.0 | 0.0 | 0.00 | 0.00 | 0.00 | 1 | 1016.0 |
| 20260903024753 | 65 | 243 | 0.0 | 0.0 | 0.00 | 0.00 | 0.00 | 1 | 1015.7 |
| 20260903024511 | 65 | 243 | 0.0 | 0.0 | 0.00 | 0.00 | 0.00 | 1 | 1016.0 |
| 20260903023751 | 65 | 243 | 0.0 | 0.0 | 0.00 | 0.00 | 0.00 | 1 | 1016.0 |
| 20260903023511 | 65 | 243 | 0.0 | 0.0 | 0.00 | 0.00 | 0.00 | 1 | 1016.1 |
| 20260903022749 | 65 | 243 | 0.0 | 0.0 | 0.00 | 0.00 | 0.00 | 1 | 1016.5 |
| 20260903022249 | 65 | 243 | 0.0 | 0.0 | 0.00 | 0.00 | 0.00 | 1 | 1016.5 |
| 20260903021749 | 65 | 243 | 0.0 | 0.0 | 0.00 | 0.00 | 0.00 | 1 | 1016.6 |
| 20260903021247 | 65 | 243 | 0.0 | 0.0 | 0.00 | 0.00 | 0.00 | 1 | 1016.7 |
| 20260903020746 | 65 | 243 | 0.0 | 0.0 | 0.00 | 0.00 | 0.00 | 1 | 1017.0 |
| 20260903020247 | 65 | 243 | 0.0 | 0.0 | 0.00 | 0.00 | 0.00 | 1 | 1017.1 |
| 20260903015747 | 65 | 243 | 0.0 | 0.0 | 0.00 | 0.00 | 0.00 | 1 | 1017.3 |
| 20260903015506 | 65 | 243 | 0.0 | 0.0 | 0.00 | 0.00 | 0.00 | 1 | 1017.1 |
| 20260903014747 | 65 | 243 | 0.0 | 0.0 | 0.00 | 0.00 | 0.00 | 1 | 1017.3 |
| 20260903014247 | 65 | 243 | 0.0 | 0.0 | 0.00 | 0.00 | 0.00 | 1 | 1017.3 |
| 20260903013745 | 65 | 243 | 0.0 | 0.0 | 0.00 | 0.00 | 0.00 | 1 | 1017.0 |
| 20260903013504 | 65 | 243 | 0.0 | 1.0 | 0.00 | 0.00 | 0.00 | 1 | 1016.9 |
| 20260903012741 | 65 | 243 | 0.0 | 1.0 | 0.00 | 0.00 | 0.00 | 1 | 1016.9 |
| 20260903012241 | 65 | 243 | 0.0 | 2.0 | 0.00 | 0.00 | 0.00 | 1 | 1016.9 |
| 20260903011945 | 65 | 243 | 0.0 | 1.0 | 0.00 | 0.00 | 0.00 | 1 | 1016.8 |
| 20260903011826 | 65 | 243 | 0.0 | 2.0 | 0.00 | 0.00 | 0.00 | 1 | 1016.7 |
| 20260903010741 | 65 | 243 | 0.0 | 2.0 | 0.00 | 0.00 | 0.00 | 1 | 1016.7 |
| 20260903010241 | 65 | 243 | 0.0 | 2.0 | 0.00 | 0.00 | 0.00 | 1 | 1016.9 |
| 20260903010005 | 65 | 243 | 0.0 | 2.0 | 0.00 | 0.00 | 0.00 | 1 | 1016.9 |
| 20260903005241 | 65 | 243 | 0.0 | 2.0 | 0.00 | 0.00 | 0.00 | 1 | 1017.1 |
| 20260903005236 | 65 | 243 | 0.0 | 0.0 | 0.00 | 0.00 | 0.00 | 1 | 1017.1 |
| 20260903004241 | 66 | 243 | 0.0 | 0.0 | 0.00 | 0.00 | 0.00 | 1 | 1016.7 |
| 20260903003740 | 66 | 243 | 0.0 | 2.0 | 0.00 | 0.00 | 0.00 | 1 | 1016.7 |
| 20260903003240 | 66 | 243 | 0.0 | 2.0 | 0.00 | 0.00 | 0.00 | 1 | 1016.7 |
| 20260903002741 | 66 | 243 | 0.0 | 2.0 | 0.00 | 0.00 | 0.00 | 1 | 1016.8 |
| 20260903002457 | 66 | 243 | 0.0 | 2.0 | 0.00 | 0.00 | 0.00 | 1 | 1016.8 |
| 20260903001740 | 66 | 243 | 0.0 | 2.0 | 0.00 | 0.00 | 0.00 | 1 | 1016.6 |
| 20260903001242 | 66 | 243 | 0.0 | 2.0 | 0.00 | 0.00 | 0.00 | 1 | 1016.5 |
| 20260903000741 | 66 | 243 | 0.0 | 0.0 | 0.00 | 0.00 | 0.00 | 1 | 1016.7 |
| 20260903000241 | 66 | 243 | 0.0 | 0.0 | 0.00 | 0.00 | 0.00 | 1 | 1016.9 |
| 20260902235740 | 66 | 243 | 0.0 | 1.0 | 0.00 | 0.00 | 0.00 | 1 | 1016.9 |
| 20260902235241 | 66 | 243 | 0.0 | 1.0 | 0.00 | 0.00 | 0.00 | 1 | 1016.9 |
| 20260902234742 | 66 | 243 | 0.0 | 0.0 | 0.00 | 0.00 | 0.00 | 1 | 1016.8 |
| 20260902234241 | 66 | 243 | 0.0 | 0.0 | 0.00 | 0.00 | 0.00 | 1 | 1016.8 |
| 20260902233739 | 66 | 243 | 0.0 | 1.0 | 0.00 | 0.00 | 0.00 | 1 | 1016.8 |
| 20260902233237 | 66 | 243 | 0.0 | 2.0 | 0.00 | 0.00 | 0.00 | 1 | 1016.8 |
| 20260902232737 | 66 | 243 | 0.0 | 2.0 | 0.00 | 0.00 | 0.00 | 1 | 1016.7 |
| 20260902232235 | 66 | 243 | 0.0 | 2.0 | 0.00 | 0.00 | 0.00 | 1 | 1016.5 |
| 20260902231734 | 66 | 243 | 1.0 | 4.0 | 0.00 | 0.00 | 0.00 | 1 | 1016.5 |
| 20260902231232 | 66 | 243 | 0.0 | 4.0 | 0.00 | 0.00 | 0.00 | 1 | 1016.7 |
| 20260902230733 | 66 | 243 | 0.0 | 1.0 | 0.00 | 0.00 | 0.00 | 1 | 1016.7 |
| 20260902230232 | 66 | 243 | 0.0 | 2.0 | 0.00 | 0.00 | 0.00 | 1 | 1016.9 |
| 20260902225733 | 66 | 243 | 1.0 | 5.0 | 0.00 | 0.00 | 0.00 | 1 | 1017.0 |
| 20260902225231 | 66 | 243 | 0.0 | 5.0 | 0.00 | 0.00 | 0.00 | 1 | 1016.8 |
| 20260902224949 | 67 | 244 | 0.0 | 1.0 | 0.00 | 0.00 | 0.00 | 1 | 1017.0 |
| 20260902224231 | 67 | 244 | 0.0 | 1.0 | 0.00 | 0.00 | 0.00 | 1 | 1017.0 |
| 20260902223726 | 67 | 244 | 0.0 | 1.0 | 0.00 | 0.00 | 0.00 | 1 | 1017.0 |
| 20260902223227 | 67 | 244 | 0.0 | 1.0 | 0.00 | 0.00 | 0.00 | 1 | 1017.1 |
| 20260902222724 | 67 | 244 | 0.0 | 2.0 | 0.00 | 0.00 | 0.00 | 1 | 1017.3 |
| 20260902222225 | 67 | 244 | 0.0 | 2.0 | 0.00 | 0.00 | 0.00 | 1 | 1017.3 |
| 20260902221722 | 67 | 244 | 1.0 | 4.0 | 0.00 | 0.00 | 0.00 | 1 | 1017.2 |
| 20260902221220 | 67 | 244 | 1.0 | 4.0 | 0.00 | 0.00 | 0.00 | 1 | 1017.2 |
| 20260902220718 | 67 | 244 | 1.0 | 4.0 | 0.00 | 0.00 | 0.00 | 1 | 1017.2 |
| 20260902220440 | 67 | 244 | 1.0 | 4.0 | 0.00 | 0.00 | 0.00 | 1 | 1017.3 |
| 20260902215945 | 68 | 244 | 1.0 | 4.0 | 0.00 | 0.00 | 0.00 | 1 | 1017.6 |
| 20260902215439 | 68 | 244 | 1.0 | 4.0 | 0.00 | 0.00 | 0.00 | 1 | 1017.7 |
| 20260902214717 | 68 | 244 | 1.0 | 4.0 | 0.00 | 0.00 | 0.00 | 1 | 1017.7 |
| 20260902214216 | 68 | 244 | 0.0 | 4.0 | 0.00 | 0.00 | 0.00 | 1 | 1017.6 |
| 20260902213716 | 68 | 244 | 0.0 | 4.0 | 0.00 | 0.00 | 0.00 | 1 | 1017.5 |
| 20260902213216 | 68 | 244 | 0.0 | 4.0 | 0.00 | 0.00 | 0.00 | 1 | 1017.5 |
| 20260902212710 | 68 | 244 | 0.0 | 5.0 | 0.00 | 0.00 | 0.00 | 1 | 1017.3 |
| 20260902212203 | 68 | 244 | 1.0 | 5.0 | 0.00 | 0.00 | 0.00 | 1 | 1017.4 |
| 20260902211658 | 69 | 244 | 1.0 | 5.0 | 0.00 | 0.00 | 0.00 | 1 | 1017.3 |
| 20260902211151 | 69 | 244 | 1.0 | 5.0 | 0.00 | 0.00 | 0.00 | 1 | 1017.3 |
| 20260902210646 | 69 | 246 | 0.0 | 4.0 | 0.00 | 0.00 | 0.00 | 1 | 1017.3 |
| 20260902210140 | 69 | 246 | 0.0 | 2.0 | 0.00 | 0.00 | 0.00 | 1 | 1017.3 |
| 20260902205634 | 69 | 246 | 0.0 | 0.0 | 0.00 | 0.00 | 0.00 | 1 | 1017.2 |
| 20260902205135 | 69 | 246 | 0.0 | 0.0 | 0.00 | 0.00 | 0.00 | 1 | 1017.3 |
| 20260902204633 | 69 | 246 | 0.0 | 0.0 | 0.00 | 0.00 | 0.00 | 1 | 1017.3 |
| 20260902204356 | 69 | 246 | 0.0 | 0.0 | 0.00 | 0.00 | 0.00 | 1 | 1017.3 |
| 20260902203632 | 69 | 246 | 0.0 | 0.0 | 0.00 | 0.00 | 0.00 | 1 | 1017.4 |
| 20260902203132 | 68 | 246 | 0.0 | 0.0 | 0.00 | 0.00 | 0.00 | 1 | 1017.4 |
| 20260902202632 | 69 | 246 | 0.0 | 0.0 | 0.00 | 0.00 | 0.00 | 1 | 1017.3 |
| 20260902202130 | 69 | 246 | 0.0 | 2.0 | 0.00 | 0.00 | 0.00 | 1 | 1017.3 |
| 20260902201628 | 68 | 246 | 2.0 | 6.0 | 0.00 | 0.00 | 0.00 | 1 | 1017.3 |
| 20260902201126 | 68 | 246 | 2.0 | 6.0 | 0.00 | 0.00 | 0.00 | 1 | 1017.2 |
| 20260902200625 | 68 | 246 | 1.0 | 5.0 | 0.00 | 0.00 | 0.00 | 1 | 1017.1 |
| 20260902200125 | 68 | 245 | 1.0 | 5.0 | 0.00 | 0.00 | 0.00 | 1 | 1017.2 |
| 20260902195625 | 68 | 248 | 1.0 | 4.0 | 0.00 | 0.00 | 0.00 | 1 | 1017.2 |
| 20260902195125 | 68 | 248 | 0.0 | 4.0 | 0.00 | 0.00 | 0.00 | 1 | 1017.3 |
| 20260902194624 | 68 | 248 | 1.0 | 6.0 | 0.00 | 0.00 | 0.00 | 1 | 1017.4 |
| 20260902194125 | 68 | 248 | 2.0 | 6.0 | 0.00 | 0.00 | 0.00 | 1 | 1017.4 |
| 20260902193625 | 68 | 248 | 2.0 | 6.0 | 0.00 | 0.00 | 0.00 | 1 | 1017.5 |
| 20260902193123 | 68 | 248 | 2.0 | 6.0 | 0.00 | 0.00 | 0.00 | 1 | 1017.7 |
| 20260902193108 | 68 | 249 | 1.0 | 4.0 | 0.00 | 0.00 | 0.00 | 1 | 1017.6 |
| 20260902192116 | 67 | 249 | 1.0 | 4.0 | 0.00 | 0.00 | 0.00 | 1 | 1017.8 |
| 20260902191610 | 67 | 249 | 2.0 | 7.0 | 0.00 | 0.00 | 0.00 | 1 | 1017.8 |
| 20260902191103 | 67 | 250 | 2.0 | 7.0 | 0.00 | 0.00 | 0.00 | 1 | 1017.8 |
| 20260902190558 | 67 | 178 | 2.0 | 5.0 | 0.00 | 0.00 | 0.00 | 1 | 1017.8 |
| 20260902190052 | 67 | 178 | 1.0 | 5.0 | 0.00 | 0.00 | 0.00 | 1 | 1017.9 |
| 20260902185807 | 67 | 177 | 1.0 | 4.0 | 0.00 | 0.00 | 0.00 | 1 | 1018.1 |
| 20260902185306 | 66 | 175 | 2.0 | 5.0 | 0.00 | 0.00 | 0.00 | 1 | 1018.0 |
| 20260902185019 | 66 | 174 | 1.0 | 5.0 | 0.00 | 0.00 | 0.00 | 1 | 1018.1 |
| 20260902184027 | 66 | 163 | 1.0 | 4.0 | 0.00 | 0.00 | 0.00 | 1 | 1018.1 |
| 20260902183744 | 65 | 163 | 1.0 | 5.0 | 0.00 | 0.00 | 0.00 | 1 | 1018.2 |
| 20260902183016 | 65 | 163 | 1.0 | 5.0 | 0.00 | 0.00 | 0.00 | 1 | 1018.2 |
| 20260902182511 | 65 | 163 | 1.0 | 4.0 | 0.00 | 0.00 | 0.00 | 1 | 1018.2 |
| 20260902182004 | 65 | 163 | 1.0 | 4.0 | 0.00 | 0.00 | 0.00 | 1 | 1018.4 |
| 20260902181458 | 65 | 163 | 1.0 | 4.0 | 0.00 | 0.00 | 0.00 | 1 | 1018.4 |
| 20260902180952 | 65 | 163 | 1.0 | 4.0 | 0.00 | 0.00 | 0.00 | 1 | 1018.4 |
| 20260902180446 | 65 | 163 | 0.0 | 2.0 | 0.00 | 0.00 | 0.00 | 1 | 1018.6 |
| 20260902175940 | 65 | 163 | 1.0 | 2.0 | 0.00 | 0.00 | 0.00 | 1 | 1018.8 |
| 20260902175435 | 65 | 163 | 1.0 | 2.0 | 0.00 | 0.00 | 0.00 | 1 | 1019.1 |
| 20260902174928 | 65 | 163 | 0.0 | 2.0 | 0.00 | 0.00 | 0.00 | 1 | 1019.4 |
| 20260902174422 | 65 | 163 | 0.0 | 1.0 | 0.00 | 0.00 | 0.00 | 1 | 1019.3 |
| 20260902173916 | 65 | 163 | 0.0 | 1.0 | 0.00 | 0.00 | 0.00 | 1 | 1019.2 |
| 20260902173410 | 65 | 163 | 1.0 | 4.0 | 0.00 | 0.00 | 0.00 | 1 | 1019.4 |
| 20260902172904 | 65 | 163 | 2.0 | 5.0 | 0.00 | 0.00 | 0.00 | 1 | 1019.4 |
| 20260902172358 | 65 | 163 | 1.0 | 5.0 | 0.00 | 0.00 | 0.00 | 1 | 1019.8 |
| 20260902171852 | 66 | 163 | 1.0 | 4.0 | 0.00 | 0.00 | 0.00 | 1 | 1019.8 |
| 20260902171345 | 66 | 162 | 0.0 | 2.0 | 0.00 | 0.00 | 0.00 | 1 | 1019.3 |
| 20260902170840 | 66 | 162 | 1.0 | 4.0 | 0.00 | 0.00 | 0.00 | 1 | 1019.1 |
| 20260902170601 | 66 | 162 | 0.0 | 4.0 | 0.00 | 0.00 | 0.00 | 1 | 1018.9 |
| 20260902165828 | 66 | 162 | 0.0 | 3.0 | 0.00 | 0.00 | 0.00 | 1 | 1018.8 |
| 20260902165322 | 66 | 162 | 1.0 | 2.0 | 0.00 | 0.00 | 0.00 | 1 | 1018.8 |
| 20260902164817 | 66 | 162 | 1.0 | 2.0 | 0.00 | 0.00 | 0.00 | 1 | 1018.8 |
| 20260902164310 | 66 | 162 | 1.0 | 2.0 | 0.00 | 0.00 | 0.00 | 1 | 1019.0 |
| 20260902163803 | 67 | 162 | 0.0 | 4.0 | 0.00 | 0.00 | 0.00 | 1 | 1019.1 |
| 20260902163258 | 67 | 162 | 0.0 | 2.0 | 0.00 | 0.00 | 0.00 | 1 | 1019.1 |
| 20260902162752 | 67 | 162 | 0.0 | 1.0 | 0.00 | 0.00 | 0.00 | 1 | 1019.0 |
| 20260902162510 | 67 | 162 | 0.0 | 1.0 | 0.00 | 0.00 | 0.00 | 1 | 1019.1 |
| 20260902161740 | 67 | 162 | 0.0 | 2.0 | 0.00 | 0.00 | 0.00 | 1 | 1019.1 |
| 20260902161234 | 67 | 162 | 1.0 | 3.0 | 0.00 | 0.00 | 0.00 | 1 | 1019.1 |
| 20260902160727 | 67 | 162 | 1.0 | 5.0 | 0.00 | 0.00 | 0.00 | 1 | 1019.1 |
| 20260902160453 | 67 | 162 | 1.0 | 5.0 | 0.00 | 0.00 | 0.00 | 1 | 1019.0 |
| 20260902155716 | 67 | 162 | 0.0 | 2.0 | 0.00 | 0.00 | 0.00 | 1 | 1018.9 |
| 20260902155209 | 66 | 162 | 0.0 | 2.0 | 0.00 | 0.00 | 0.00 | 1 | 1018.7 |
| 20260902154704 | 66 | 162 | 0.0 | 2.0 | 0.00 | 0.00 | 0.00 | 1 | 1018.7 |
| 20260902154159 | 66 | 162 | 0.0 | 4.0 | 0.00 | 0.00 | 0.00 | 1 | 1018.6 |
| 20260902153652 | 66 | 162 | 1.0 | 3.0 | 0.00 | 0.00 | 0.00 | 1 | 1018.7 |
| 20260902153145 | 66 | 162 | 0.0 | 2.0 | 0.00 | 0.00 | 0.00 | 1 | 1018.7 |
| 20260902153126 | 66 | 162 | 0.0 | 4.0 | 0.00 | 0.00 | 0.00 | 1 | 1018.8 |
| 20260902152134 | 65 | 162 | 0.0 | 4.0 | 0.00 | 0.00 | 0.00 | 1 | 1018.8 |
| 20260902151628 | 65 | 162 | 1.0 | 4.0 | 0.00 | 0.00 | 0.00 | 1 | 1018.8 |
| 20260902151121 | 65 | 162 | 1.0 | 4.0 | 0.00 | 0.00 | 0.00 | 1 | 1018.8 |
| 20260902150615 | 65 | 162 | 0.0 | 2.0 | 0.00 | 0.00 | 0.00 | 1 | 1018.8 |
| 20260902150333 | 65 | 162 | 0.0 | 2.0 | 0.00 | 0.00 | 0.00 | 1 | 1018.9 |
| 20260902145604 | 65 | 162 | 0.0 | 2.0 | 0.00 | 0.00 | 0.00 | 1 | 1019.0 |
| 20260902145320 | 65 | 162 | 1.0 | 5.0 | 0.00 | 0.00 | 0.00 | 1 | 1019.1 |
| 20260902144552 | 65 | 162 | 2.0 | 5.0 | 0.00 | 0.00 | 0.00 | 1 | 1019.3 |
| 20260902144047 | 65 | 161 | 0.0 | 4.0 | 0.00 | 0.00 | 0.00 | 1 | 1019.3 |
| 20260902143540 | 65 | 161 | 0.0 | 0.0 | 0.00 | 0.00 | 0.00 | 1 | 1019.3 |
| 20260902143041 | 64 | 161 | 0.0 | 2.0 | 0.00 | 0.00 | 0.00 | 1 | 1019.4 |
| 20260902142538 | 64 | 161 | 0.0 | 2.0 | 0.00 | 0.00 | 0.00 | 1 | 1019.4 |
| 20260902142306 | 64 | 161 | 1.0 | 4.0 | 0.00 | 0.00 | 0.00 | 1 | 1019.3 |
| 20260902141534 | 64 | 161 | 0.0 | 4.0 | 0.00 | 0.00 | 0.00 | 1 | 1019.4 |
| 20260902141032 | 64 | 161 | 0.0 | 0.0 | 0.00 | 0.00 | 0.00 | 1 | 1019.3 |
| 20260902140530 | 64 | 161 | 0.0 | 2.0 | 0.00 | 0.00 | 0.00 | 1 | 1019.1 |
| 20260902140028 | 64 | 161 | 0.0 | 2.0 | 0.00 | 0.00 | 0.00 | 1 | 1019.0 |
| 20260902135747 | 64 | 161 | 0.0 | 0.0 | 0.00 | 0.00 | 0.00 | 1 | 1018.9 |
| 20260902135026 | 64 | 161 | 0.0 | 0.0 | 0.00 | 0.00 | 0.00 | 1 | 1019.1 |
| 20260902134525 | 64 | 161 | 0.0 | 0.0 | 0.00 | 0.00 | 0.00 | 1 | 1019.3 |
| 20260902134022 | 64 | 161 | 0.0 | 0.0 | 0.00 | 0.00 | 0.00 | 1 | 1019.3 |
| 20260902133522 | 63 | 161 | 0.0 | 0.0 | 0.00 | 0.00 | 0.00 | 1 | 1019.5 |
| 20260902133023 | 63 | 161 | 0.0 | 1.0 | 0.00 | 0.00 | 0.00 | 1 | 1019.3 |
| 20260902132522 | 63 | 161 | 0.0 | 1.0 | 0.00 | 0.00 | 0.00 | 1 | 1019.1 |
| 20260902132021 | 63 | 161 | 0.0 | 1.0 | 0.00 | 0.00 | 0.00 | 1 | 1019.1 |
| 20260902131521 | 63 | 161 | 0.0 | 1.0 | 0.00 | 0.00 | 0.00 | 1 | 1019.1 |
| 20260902131245 | 63 | 161 | 0.0 | 1.0 | 0.00 | 0.00 | 0.00 | 1 | 1019.1 |
| 20260902130516 | 63 | 161 | 0.0 | 2.0 | 0.00 | 0.00 | 0.00 | 1 | 1019.0 |
| 20260902130233 | 63 | 161 | 0.0 | 2.0 | 0.00 | 0.00 | 0.00 | 1 | 1019.0 |
| 20260902125515 | 63 | 161 | 0.0 | 1.0 | 0.00 | 0.00 | 0.00 | 1 | 1018.7 |
| 20260902125241 | 63 | 161 | 0.0 | 2.0 | 0.00 | 0.00 | 0.00 | 1 | 1018.6 |
| 20260902124515 | 63 | 161 | 0.0 | 2.0 | 0.00 | 0.00 | 0.00 | 1 | 1018.6 |
| 20260902124015 | 63 | 160 | 0.0 | 4.0 | 0.00 | 0.00 | 0.00 | 1 | 1018.6 |
| 20260902123514 | 63 | 160 | 0.0 | 4.0 | 0.00 | 0.00 | 0.00 | 1 | 1018.6 |
| 20260902123243 | 63 | 161 | 0.0 | 4.0 | 0.00 | 0.00 | 0.00 | 1 | 1018.6 |
| 20260902122514 | 63 | 161 | 0.0 | 4.0 | 0.00 | 0.00 | 0.00 | 1 | 1018.7 |
| 20260902122014 | 63 | 162 | 0.0 | 4.0 | 0.00 | 0.00 | 0.00 | 1 | 1018.4 |
| 20260902121513 | 63 | 163 | 0.0 | 4.0 | 0.00 | 0.00 | 0.00 | 1 | 1018.2 |
| 20260902121241 | 63 | 159 | 0.0 | 2.0 | 0.00 | 0.00 | 0.00 | 1 | 1018.4 |
| 20260902120514 | 63 | 159 | 0.0 | 2.0 | 0.00 | 0.00 | 0.00 | 1 | 1018.4 |
| 20260902120014 | 63 | 155 | 0.0 | 2.0 | 0.00 | 0.00 | 0.00 | 1 | 1018.4 |
| 20260902115953 | 63 | 155 | 0.0 | 2.0 | 0.00 | 0.00 | 0.00 | 1 | 1018.4 |
| 20260902115009 | 63 | 157 | 0.0 | 2.0 | 0.00 | 0.00 | 0.00 | 1 | 1018.4 |
| 20260902114509 | 63 | 157 | 0.0 | 2.0 | 0.00 | 0.00 | 0.00 | 1 | 1018.4 |
| 20260902114010 | 63 | 157 | 1.0 | 4.0 | 0.00 | 0.00 | 0.00 | 1 | 1018.5 |
| 20260902113510 | 63 | 158 | 1.0 | 4.0 | 0.00 | 0.00 | 0.00 | 1 | 1018.5 |
| 20260902113009 | 63 | 155 | 0.0 | 2.0 | 0.00 | 0.00 | 0.00 | 1 | 1018.5 |
| 20260902112511 | 63 | 154 | 0.0 | 2.0 | 0.00 | 0.00 | 0.00 | 1 | 1018.6 |
| 20260902112009 | 63 | 154 | 0.0 | 2.0 | 0.00 | 0.00 | 0.00 | 1 | 1018.6 |
| 20260902111509 | 63 | 52 | 0.0 | 0.0 | 0.00 | 0.00 | 0.00 | 1 | 1018.6 |
| 20260902111011 | 63 | 52 | 0.0 | 0.0 | 0.00 | 0.00 | 0.00 | 1 | 1018.6 |
| 20260902110509 | 63 | 52 | 0.0 | 0.0 | 0.00 | 0.00 | 0.00 | 1 | 1018.5 |
| 20260902110009 | 63 | 52 | 0.0 | 0.0 | 0.00 | 0.00 | 0.00 | 1 | 1018.6 |
| 20260902105509 | 63 | 52 | 0.0 | 0.0 | 0.00 | 0.00 | 0.00 | 1 | 1018.7 |
| 20260902105229 | 63 | 52 | 0.0 | 0.0 | 0.00 | 0.00 | 0.00 | 1 | 1018.6 |
| 20260902104733 | 63 | 51 | 0.0 | 0.0 | 0.00 | 0.00 | 0.00 | 1 | 1018.4 |
| 20260902104237 | 63 | 51 | 0.0 | 0.0 | 0.00 | 0.00 | 0.00 | 1 | 1018.5 |
| 20260902103509 | 63 | 51 | 0.0 | 0.0 | 0.00 | 0.00 | 0.00 | 1 | 1018.5 |
| 20260902103009 | 63 | 51 | 0.0 | 0.0 | 0.00 | 0.00 | 0.00 | 1 | 1018.5 |
| 20260902102509 | 63 | 51 | 0.0 | 0.0 | 0.00 | 0.00 | 0.00 | 1 | 1018.4 |
| 20260902102010 | 63 | 51 | 0.0 | 0.0 | 0.00 | 0.00 | 0.00 | 1 | 1018.4 |
| 20260902101510 | 63 | 51 | 0.0 | 0.0 | 0.00 | 0.00 | 0.00 | 1 | 1018.4 |
| 20260902101010 | 63 | 51 | 0.0 | 0.0 | 0.00 | 0.00 | 0.00 | 1 | 1018.1 |
| 20260902100510 | 63 | 51 | 0.0 | 0.0 | 0.00 | 0.00 | 0.00 | 1 | 1018.1 |
| 20260902100009 | 63 | 51 | 0.0 | 0.0 | 0.00 | 0.00 | 0.00 | 1 | 1018.0 |
| 20260902095510 | 63 | 51 | 0.0 | 0.0 | 0.00 | 0.00 | 0.00 | 1 | 1017.9 |
| 20260902095010 | 63 | 51 | 0.0 | 0.0 | 0.00 | 0.00 | 0.00 | 1 | 1017.8 |
| 20260902094510 | 63 | 51 | 0.0 | 0.0 | 0.00 | 0.00 | 0.00 | 1 | 1017.8 |
| 20260902094009 | 63 | 51 | 0.0 | 0.0 | 0.00 | 0.00 | 0.00 | 1 | 1017.9 |
| 20260902093509 | 63 | 51 | 0.0 | 0.0 | 0.00 | 0.00 | 0.00 | 1 | 1017.8 |
| 20260902093233 | 63 | 51 | 0.0 | 0.0 | 0.00 | 0.00 | 0.00 | 1 | 1017.8 |
| 20260902092507 | 63 | 51 | 0.0 | 0.0 | 0.00 | 0.00 | 0.00 | 1 | 1017.6 |
| 20260902092005 | 63 | 51 | 0.0 | 0.0 | 0.00 | 0.00 | 0.00 | 1 | 1017.6 |
| 20260902091505 | 63 | 51 | 0.0 | 0.0 | 0.00 | 0.00 | 0.00 | 1 | 1017.4 |
| 20260902091001 | 63 | 51 | 0.0 | 0.0 | 0.00 | 0.00 | 0.00 | 1 | 1017.4 |
| 20260902090501 | 63 | 51 | 0.0 | 0.0 | 0.00 | 0.00 | 0.00 | 1 | 1017.4 |
| 20260902085959 | 63 | 51 | 0.0 | 0.0 | 0.00 | 0.00 | 0.00 | 1 | 1017.5 |
| 20260902085500 | 63 | 51 | 0.0 | 0.0 | 0.00 | 0.00 | 0.00 | 1 | 1017.5 |
| 20260902085438 | 63 | 51 | 0.0 | 0.0 | 0.00 | 0.00 | 0.00 | 1 | 1017.4 |
| 20260902084455 | 63 | 51 | 0.0 | 0.0 | 0.00 | 0.00 | 0.00 | 1 | 1017.5 |
| 20260902083955 | 63 | 51 | 0.0 | 0.0 | 0.00 | 0.00 | 0.00 | 1 | 1017.4 |
| 20260902083455 | 63 | 51 | 0.0 | 0.0 | 0.00 | 0.00 | 0.00 | 1 | 1017.4 |
| 20260902083216 | 63 | 51 | 0.0 | 0.0 | 0.00 | 0.00 | 0.00 | 1 | 1017.3 |
| 20260902082450 | 63 | 51 | 0.0 | 0.0 | 0.00 | 0.00 | 0.00 | 1 | 1017.2 |
| 20260902081948 | 63 | 51 | 0.0 | 1.0 | 0.00 | 0.00 | 0.00 | 1 | 1017.2 |
| 20260902081441 | 63 | 51 | 1.0 | 2.0 | 0.00 | 0.00 | 0.00 | 1 | 1017.2 |
| 20260902080935 | 63 | 51 | 1.0 | 2.0 | 0.00 | 0.00 | 0.00 | 1 | 1017.2 |
| 20260902080913 | 63 | 55 | 1.0 | 2.0 | 0.00 | 0.00 | 0.00 | 1 | 1017.3 |
| 20260902075923 | 63 | 80 | 1.0 | 2.0 | 0.00 | 0.00 | 0.00 | 1 | 1017.3 |
| 20260902075636 | 63 | 82 | 1.0 | 2.0 | 0.00 | 0.00 | 0.00 | 1 | 1017.2 |
| 20260902074910 | 63 | 84 | 1.0 | 5.0 | 0.00 | 0.00 | 0.00 | 1 | 1017.2 |
| 20260902074403 | 63 | 63 | 1.0 | 5.0 | 0.00 | 0.00 | 0.00 | 1 | 1017.2 |
| 20260902073857 | 64 | 94 | 1.0 | 2.0 | 0.00 | 0.00 | 0.00 | 1 | 1017.2 |
| 20260902073351 | 64 | 205 | 0.0 | 2.0 | 0.00 | 0.00 | 0.00 | 1 | 1017.2 |
| 20260902072845 | 64 | 205 | 0.0 | 2.0 | 0.00 | 0.00 | 0.00 | 1 | 1017.1 |
| 20260902072339 | 64 | 208 | 0.0 | 0.0 | 0.00 | 0.00 | 0.00 | 1 | 1017.1 |
| 20260902071833 | 64 | 208 | 0.0 | 0.0 | 0.00 | 0.00 | 0.00 | 1 | 1017.1 |
| 20260902071327 | 64 | 209 | 0.0 | 0.0 | 0.00 | 0.00 | 0.00 | 1 | 1017.2 |
| 20260902070820 | 64 | 209 | 0.0 | 0.0 | 0.00 | 0.00 | 0.00 | 1 | 1017.2 |
| 20260902070315 | 64 | 209 | 0.0 | 0.0 | 0.00 | 0.00 | 0.00 | 1 | 1017.2 |
| 20260902070033 | 64 | 209 | 0.0 | 0.0 | 0.00 | 0.00 | 0.00 | 1 | 1017.3 |
| 20260902065310 | 64 | 209 | 0.0 | 2.0 | 0.00 | 0.00 | 0.00 | 1 | 1017.2 |
| 20260902064809 | 64 | 209 | 0.0 | 2.0 | 0.00 | 0.00 | 0.00 | 1 | 1017.2 |
| 20260902064307 | 64 | 208 | 1.0 | 4.0 | 0.00 | 0.00 | 0.00 | 1 | 1017.1 |